Weather Roundup
Issued by NWS

Home | Current Version | Previous Version | Graphics & Text | Print | Product List | Glossary Off
Versions: 1 2 3 4 5 6 7 8 9 10 11 12 13 14 15 16 17 18 19 20 21 22 23 24 25 26 27 28 29 30 31 32 33 34 35 36 37 38 39 40 41 42 43 44 45 46 47 48 49 50

803
NZUS93 KARX 241459
HRRWXR

CURRENT HOURLY OBSERVATIONS ACROSS
MUCH OF THE UPPER MISSISSIPPI VALLEY
NATIONAL WEATHER SERVICE LA CROSSE WI
1000 AM CDT SAT SEP 24 2016


...SOUTHEAST MINNESOTA...


CITY           SKY/WX    TMP DP  RH WIND       PRES   REMARKS
ROCHESTER      CLOUDY    64  63  96 SE14G21   30.13F FOG
ROCHESTER/MAYO   N/A     63  63 100 SE13G21   30.13S
WINONA         CLOUDY    63  61  94 SE7       30.16S FOG
AUSTIN         CLOUDY    64  63  94 SE8       30.12S FOG
ALBERT LEA     CLOUDY    64  64 100 SE13      30.10S FOG
DODGE CENTER   CLOUDY    64  63  94 SE13      30.12S FOG
PRESTON        FOG       63  61  95 SE9       30.15S VSB 3/4
OWATONNA       CLOUDY    66  63  88 SE14G22   30.09F FOG
FARIBAULT      CLOUDY    66  63  88 SE13      30.09F
$$

...ELSEWHERE IN MINNESOTA...


CITY           SKY/WX    TMP DP  RH WIND       PRES   REMARKS
MINNEAPOLIS    CLOUDY    64  61  90 SE14      30.09F FOG
INTNL FALLS    CLOUDY    58  55  90 SE8       30.08F
DULUTH         CLOUDY    55  55 100 E10       30.15F FOG
RED WING       CLOUDY    64  61  88 SE14      30.11S FOG
REDWOOD FALLS  CLOUDY    70  64  81 SE20G28   30.00R
MANKATO        CLOUDY    66  63  90 SE17      30.06F
WORTHINGTON    CLOUDY    71  66  84 SE15G23   30.00F
FAIRMONT       CLOUDY    69  65  86 SE14G22   30.05S
$$

...SOUTHWEST WISCONSIN...


CITY           SKY/WX    TMP DP  RH WIND       PRES   REMARKS
LA CROSSE      CLOUDY    67  62  84 SE8       30.16F
PRAIRIE DU CHI CLOUDY    66  63  88 E6        30.15S FOG
BOSCOBEL       CLOUDY    67  62  84 E8        30.18S
LONE ROCK      NOT AVBL
PLATTEVILLE    CLOUDY    65  64  96 E12       30.18S
FORT MC COY    CLOUDY    63  60  91 E6        30.19F
CAMP DOUGLAS   CLOUDY    61  61 100 E9        30.21S
MAUSTON-NEW LI CLOUDY    61  60  95 SE6       30.21R
VIROQUA        CLOUDY    62  62 100 E9        30.19S
WIS DELLS      NOT AVBL
$$

...ELSEWHERE IN WISCONSIN...


CITY           SKY/WX    TMP DP  RH WIND       PRES   REMARKS
MILWAUKEE      CLOUDY    65  58  78 E10       30.24R
MADISON        CLOUDY    62  59  90 E8G21     30.21S
GREEN BAY      MOSUNNY   63  57  81 E8        30.28R
EAU CLAIRE     NOT AVBL
BLACK RVR FLS  CLOUDY    61  61 100 E6        30.19S
MEDFORD        CLOUDY   N/A N/A N/A SE7       30.23S
WAUSAU         CLOUDY    60  56  86 SE10      30.24S
WIS RAPIDS     LGT RAIN  62  59  90 SE9       30.24S
MARSHFIELD     CLOUDY    62  56  80 E9        30.22S
RICE LAKE      NOT AVBL
$$

...NORTHEAST IOWA...


CITY           SKY/WX    TMP DP  RH WIND       PRES   REMARKS
WATERLOO       CLOUDY    67  64  90 SE12      30.11S FOG
DUBUQUE        CLOUDY    65  63  93 E9        30.18R
DECORAH        CLOUDY    64  64 100 VRB5G14   30.14F FOG
MASON CITY     NOT AVBL
CHARLES CITY   FOG       64  64 100 SE10      30.13S VSB 1
OELWEIN        CLOUDY    66  66 100 SE10      30.14S FOG
$$

...ELSEWHERE IN IOWA...


CITY           SKY/WX    TMP DP  RH WIND       PRES   REMARKS
DES MOINES     MOSUNNY   76  67  73 SE10      30.06R
IOWA CITY      CLOUDY    69  66  90 E8        30.15R FOG
FORT DODGE     PTSUNNY   70  64  83 SE13G18   30.06S
MARSHALLTOWN   CLOUDY    68  67  96 SE15      30.10R FOG
CEDAR RAPIDS   CLOUDY    68  68 100 SE12      30.13R FOG
$$

...NORTHERN ILLINOIS...


CITY           SKY/WX    TMP DP  RH WIND       PRES   REMARKS
CHICAGO-OHARE  CLOUDY    67  61  81 E9        30.20R
CHICAGO-MIDWAY CLOUDY    68  61  78 E12       30.19S
MOLINE         CLOUDY    69  66  90 SE8       30.14S FOG
ROCKFORD       CLOUDY    68  62  81 E8        30.20S
PEORIA         CLOUDY    72  69  90 SE8       30.15S FOG
$$

NOTE: "FAIR" INDICATES FEW OR NO CLOUDS BELOW 12,000 FEET WITH NO
SIGNIFICANT WEATHER AND/OR OBSTRUCTIONS TO VISIBILITY. WIND
SPEEDS ARE IN MILES-PER-HOUR.




USA.gov is the U.S. government's official web portal to all federal, state and local government web resources and services.